GFSNW_850_dewp_000.txt.gz
Dewpoint
-3 -2 -2 -1 4 2 6 2 -1 4 3 0 1 -0 -2 -0 1 0 1 1 1 2 2 3 3 3 2 1 1 2 2 2 3 1 -0 1 2 2 2 3 3 3 3 4
-4 -3 -1 -2 3 5 3 1 2 2 2 2 0 0 1 0 0 1 0 1 2 2 2 3 2 3 2 2 1 2 1 2 2 -2 -0 -0 3 3 2 1 2 4 4 3
-5 -4 -1 -2 0 3 1 0 3 1 -1 -0 0 1 1 2 1 0 1 1 1 2 3 2 3 3 2 2 2 1 1 2 1 2 -0 1 3 4 3 3 5 4 4 3
-6 -5 -3 -1 -2 2 0 -0 3 2 2 3 2 2 1 2 1 -0 1 2 2 2 3 3 4 3 3 1 2 2 2 4 3 2 2 3 3 4 4 4 4 5 3 3
-6 -5 -5 -1 -2 1 1 0 2 2 3 1 -0 0 1 3 1 0 2 2 2 2 3 2 4 3 3 3 2 3 2 2 4 4 3 4 4 4 4 4 4 4 4 4
-6 -6 -6 -2 -1 -0 1 2 1 1 3 -0 0 1 1 1 1 1 1 1 1 0 2 2 2 2 2 2 2 2 3 1 3 2 3 2 1 -0 3 2 2 2 2 -0
-6 -6 -5 -3 -1 -0 1 2 0 -1 1 -1 1 2 1 1 1 2 1 1 -0 2 3 3 3 3 0 0 2 3 2 1 1 2 4 5 0 -1 -1 0 -0 -1 -0 -0
-5 -5 -3 -1 0 0 1 2 -0 -2 1 2 3 1 1 1 1 2 1 3 2 3 2 0 -0 -1 -3 -2 3 3 1 2 3 5 5 2 2 -0 -1 0 0 -2 -0 1
-3 -3 -1 1 1 2 3 2 2 -1 0 2 1 1 1 0 0 1 4 4 3 3 0 -1 0 0 1 2 1 1 1 -1 1 3 5 5 1 -2 -2 1 3 1 2 1
-2 -0 1 2 2 2 2 1 1 1 -1 0 2 1 2 1 1 1 2 4 3 3 0 2 0 2 1 3 0 -2 1 2 5 5 4 2 -1 -1 -1 4 2 1 1 2
1 1 2 3 3 2 2 2 1 2 0 1 2 1 1 2 2 1 2 2 2 2 3 2 2 -2 0 2 1 -0 -1 -1 -0 2 3 3 -1 0 2 1 1 1 2 2
3 4 4 4 3 3 2 2 3 2 1 1 3 3 2 2 2 1 2 2 2 3 2 1 -0 0 0 1 4 -0 2 1 2 3 2 -1 -0 2 0 1 2 2 3 3
5 5 5 5 5 4 4 3 4 3 3 3 3 3 3 3 3 3 3 3 3 3 2 2 0 1 0 5 4 1 2 3 3 2 1 2 2 2 2 4 4 3 2 1
5 5 5 5 5 5 5 5 5 4 4 3 3 3 3 3 3 2 3 3 3 3 4 3 0 3 3 3 4 4 4 3 3 3 3 3 2 3 3 3 3 2 0 -3
5 5 5 6 6 6 6 6 6 5 4 3 3 2 2 2 2 2 3 3 5 6 5 4 3 3 3 3 2 3 3 3 3 4 2 4 4 4 3 2 1 1 -6 -7
5 5 5 6 6 6 6 6 5 5 5 5 3 3 2 2 2 2 3 4 5 5 5 5 4 3 3 3 4 2 1 2 2 3 3 2 3 3 1 0 -6 -6 -6 -8
5 5 6 6 6 6 6 4 3 4 5 4 3 3 3 3 3 3 3 3 4 5 5 5 3 3 4 2 4 2 2 3 2 0 1 3 2 0 -4 -4 -7 -10 -11 -13
5 6 6 6 6 6 6 5 3 2 5 4 2 2 2 2 2 3 3 4 4 5 5 4 3 4 4 3 3 2 1 -0 0 0 1 2 -1 -3 -6 -7 -7 -10 -13 -14
5 5 6 6 5 5 5 5 6 5 4 4 3 3 4 3 3 3 3 3 2 2 2 2 3 1 4 3 -0 -1 -2 -1 0 0 -1 -2 -5 -3 -4 -5 -8 -11 -14 -14
5 5 5 4 4 4 4 4 4 5 3 3 2 2 2 3 3 2 3 1 1 2 1 1 1 2 1 -1 0 0 -0 -1 -1 -1 -5 -4 -5 -6 -7 -7 -8 -9 -10 -12
3 4 3 2 3 3 3 2 2 2 2 1 1 2 2 2 2 1 1 0 -0 -1 -3 0 0 -1 -2 -3 -2 -3 -5 -5 -5 -5 -7 -8 -7 -6 -7 -7 -6 -7 -8 -9
3 2 2 2 2 2 2 1 -0 0 0 -0 0 1 1 1 2 1 -1 -0 -1 -0 -3 -1 -2 -4 -2 -3 -4 -5 -6 -6 -6 -8 -10 -13 -13 -10 -7 -7 -6 -6 -7 -8
1 0 1 1 1 1 2 0 1 0 -0 -0 -0 -0 1 0 1 -1 -2 -2 -3 -3 -3 -3 -4 -5 -11 -12 -13 -12 -11 -12 -14 -15 -14 -12 -10 -9 -10 -10 -10 -8 -7 -7
-1 -0 1 -1 -0 -0 -1 -2 -4 -2 -0 -0 0 -1 -1 -2 -2 -3 -5 -5 -5 -2 -3 -5 -6 -9 -10 -10 -9 -9 -9 -11 -11 -10 -9 -10 -10 -9 -9 -8 -6 -6 -6 -6
-4 -4 -2 -1 -3 -2 -1 -1 -0 -0 0 0 -1 -2 -2 -4 -5 -5 -6 -4 -4 -5 -6 -8 -8 -9 -8 -7 -8 -11 -12 -10 -8 -8 -9 -10 -9 -9 -8 -8 -6 -6 -5 -5
-4 -4 -5 -3 -2 -2 -2 -1 -0 -0 -0 -1 -3 -6 -5 -6 -8 -7 -5 -5 -5 -8 -8 -9 -8 -7 -6 -9 -11 -11 -9 -8 -8 -9 -9 -8 -8 -7 -7 -7 -6 -6 -6 -6
-7 -4 -3 -3 -4 -4 -3 -3 -2 -0 -1 -4 -5 -7 -8 -8 -9 -7 -7 -8 -9 -7 -11 -8 -7 -8 -10 -12 -12 -10 -9 -8 -8 -8 -8 -8 -8 -8 -8 -7 -7 -6 -6 -5

GFSNW_850_dewp_006.txt.gz
Dewpoint
-2 -1 1 0 2 4 2 1 3 2 1 3 1 2 0 0 1 1 1 2 2 2 3 3 3 3 2 2 1 1 1 2 -0 -1 1 1 1 2 1 2 2 3 5 2
-3 -1 -1 3 1 4 4 4 4 4 3 7 7 2 1 1 1 1 1 2 2 1 3 4 3 3 2 2 1 2 1 2 -1 -0 2 1 2 1 1 2 3 5 6 2
-5 -3 -1 3 4 4 1 2 9 2 1 2 1 2 2 2 1 1 1 1 1 2 3 3 4 4 3 3 2 1 1 2 1 -3 -3 -2 -1 -2 -0 1 5 3 3 1
-7 -5 -2 -1 2 1 -1 2 5 3 7 4 2 2 1 2 2 1 1 1 1 2 4 3 4 3 2 2 2 3 2 2 2 0 -1 -1 0 0 -1 0 2 4 2 0
-7 -6 -5 -2 -0 1 -1 4 4 3 3 2 2 3 2 1 1 1 1 1 1 -1 0 -2 1 -1 -0 -1 2 2 2 3 3 3 1 -0 2 0 -0 1 1 1 1 1
-7 -7 -6 -2 -2 -0 -0 1 0 3 2 2 4 3 2 1 1 2 1 1 1 3 -0 0 2 2 2 2 1 3 4 5 5 7 2 3 6 2 -0 -1 0 -0 2 -1
-7 -7 -7 -6 -1 -1 -0 0 0 2 6 4 2 1 1 1 1 2 2 1 4 2 1 2 2 1 2 3 3 3 5 5 5 7 6 7 1 -2 -2 -1 -1 -2 -2 -1
-7 -7 -7 -6 -2 -1 -1 0 -1 -1 6 3 2 2 2 2 2 2 2 4 3 4 3 4 7 3 5 4 2 2 3 5 6 6 4 2 0 -1 -0 -0 -0 -1 1 1
-6 -6 -6 -5 -2 0 0 1 -2 -3 1 6 1 2 2 4 4 4 5 3 3 3 5 6 8 5 2 1 2 2 2 3 6 5 6 6 1 -2 -1 -1 2 1 3 4
-4 -5 -5 -4 -1 2 2 2 0 -2 -3 1 1 3 3 3 3 4 4 4 3 4 6 7 9 5 2 3 6 6 5 4 5 5 6 4 -1 -1 -0 5 5 3 3 3
-3 -3 -4 -4 -1 2 3 2 1 -1 -2 1 0 -0 0 1 2 6 4 5 5 6 7 6 7 6 5 3 1 3 3 6 6 5 5 6 -1 -1 5 3 3 3 3 3
-1 -2 -2 -2 -1 1 2 2 1 1 -0 1 1 0 -1 -1 0 2 4 4 4 5 6 5 4 5 3 7 6 1 3 2 2 3 4 -0 0 1 2 3 3 3 3 2
1 -0 -0 1 1 2 2 2 2 2 1 3 4 3 1 1 0 -0 4 2 3 3 3 5 5 5 5 5 5 6 1 1 3 3 1 1 2 2 3 4 3 2 1 -0
3 2 1 2 3 3 3 3 3 2 1 3 4 3 4 3 3 2 2 1 1 2 2 4 3 6 3 5 4 4 2 1 2 3 3 2 2 4 3 3 3 1 -1 -2
4 4 3 4 4 5 5 4 4 3 2 5 4 3 4 4 3 3 3 3 3 3 3 3 5 5 5 4 4 5 2 2 5 5 3 3 4 3 2 3 1 -2 -4 -6
5 5 5 5 5 5 6 5 5 4 4 4 7 3 3 3 3 3 4 4 3 4 5 5 5 5 4 4 5 3 2 2 3 3 3 3 2 2 1 -1 -3 -4 -6 -7
4 5 5 5 5 6 6 6 4 5 5 5 5 5 3 3 3 4 4 4 6 5 5 5 5 5 4 3 5 2 3 3 3 2 1 2 1 0 -2 -3 -5 -5 -6 -7
4 5 5 5 5 6 6 5 3 4 6 5 4 4 3 3 3 3 3 4 5 5 5 4 4 4 4 5 3 2 0 1 0 1 2 1 -1 -3 -4 -5 -6 -7 -9 -9
4 5 5 5 5 5 5 5 5 4 4 4 3 4 5 2 2 3 2 3 4 3 3 3 3 3 4 4 2 0 1 1 1 -1 -2 -3 -4 -5 -7 -8 -10 -10 -8 -8
5 5 5 5 5 5 5 5 5 5 5 4 4 4 5 3 2 2 3 2 3 4 2 1 1 2 1 -1 -0 -1 -1 -0 -1 -2 -3 -5 -7 -10 -10 -9 -8 -8 -8 -10
4 4 4 3 4 5 5 4 3 2 2 2 2 2 2 2 3 3 2 1 1 4 2 3 3 2 0 -0 1 -1 -1 -2 -3 -5 -8 -10 -10 -10 -8 -7 -8 -11 -11 -10
2 2 2 2 2 2 2 1 -0 1 2 0 1 1 2 2 2 1 -1 2 1 3 -1 1 2 -1 -2 -1 -2 -3 -3 -5 -9 -13 -12 -14 -14 -11 -10 -11 -11 -10 -9 -10
0 1 0 -0 -0 2 3 3 2 2 0 0 0 0 1 1 1 -1 1 2 2 -2 -0 0 -1 -2 -2 -2 -2 -3 -5 -10 -13 -13 -14 -14 -12 -9 -9 -9 -9 -9 -9 -10
0 0 1 1 2 2 1 1 2 -1 0 0 1 -1 0 -1 -1 -1 2 -2 -2 0 0 0 -3 -4 -5 -6 -6 -7 -8 -11 -14 -15 -13 -11 -10 -9 -9 -8 -8 -9 -9 -9
-0 -0 1 0 -2 -1 -1 -1 -1 -0 -0 0 -0 -1 -1 -1 -1 -2 -2 -1 -0 -1 -1 -3 -5 -7 -7 -7 -9 -8 -10 -14 -15 -14 -13 -10 -8 -8 -8 -8 -9 -10 -9 -8
-5 -4 -2 -2 -1 -1 -1 -1 -1 -0 -0 0 -1 -1 0 -1 -1 -1 -1 -2 -2 -3 -3 -3 -6 -9 -8 -8 -7 -9 -12 -15 -15 -13 -9 -7 -8 -7 -7 -8 -10 -11 -11 -8
-5 -3 -3 -3 -2 -1 -1 -1 -0 -0 -0 -0 -3 -0 -1 -4 -2 -2 -4 -3 -4 -4 -6 -9 -10 -10 -8 -7 -9 -12 -15 -15 -12 -9 -8 -7 -7 -7 -8 -8 -10 -10 -11 -9

GFSNW_850_dewp_009.txt.gz
Dewpoint
0 0 2 3 1 -1 -1 2 1 -2 -2 1 4 3 -0 -1 -1 0 0 -0 -0 1 1 2 2 2 2 1 -0 0 -0 1 0 -3 -1 -0 -0 0 -0 2 1 1 4 2
-1 -0 3 0 4 1 5 1 3 0 1 8 8 2 1 0 0 -0 0 2 1 1 2 3 2 2 2 2 0 2 0 2 1 -2 1 0 0 -0 -1 0 2 3 7 3
-3 -1 1 2 3 4 4 2 7 3 4 2 1 2 1 2 1 1 1 1 1 1 2 1 3 3 2 3 2 1 1 -0 -0 1 -3 -4 -3 -4 -4 -1 4 3 2 -0
-5 -3 -1 3 3 4 2 4 4 4 5 4 1 1 1 1 1 0 0 1 1 2 3 2 2 1 2 1 1 1 1 2 1 -0 -3 -4 -3 -2 -3 -3 -2 2 1 -0
-8 -5 -2 -1 2 0 4 2 3 3 4 2 2 2 1 0 0 -0 0 1 -0 -1 2 -3 -0 -2 -3 -2 1 0 1 4 3 2 -2 -3 -1 -3 -3 -3 -2 -2 -2 -1
-8 -7 -5 -2 -0 0 4 1 3 3 3 3 3 3 1 -0 1 2 -1 -1 -2 2 -1 0 1 1 1 -0 1 2 3 4 4 6 3 3 7 2 -3 -3 -3 -1 2 -1
-7 -8 -7 -3 -2 -1 2 3 4 5 6 4 3 0 -0 0 -0 1 -0 -1 2 3 2 2 2 2 2 2 2 2 6 5 6 8 6 9 1 -3 -3 -2 -2 -3 -3 -3
-6 -8 -7 -6 -1 -1 -1 -0 3 3 10 3 2 1 0 1 1 1 2 3 3 3 2 4 6 4 5 4 1 1 2 6 7 7 4 2 0 -1 -1 -0 0 -2 0 1
-6 -7 -7 -6 -3 -1 0 -0 -2 3 3 7 1 2 2 4 4 4 5 5 5 5 5 6 8 5 1 2 2 1 3 4 6 7 7 6 2 -1 -1 -1 3 2 2 2
-5 -6 -7 -6 -4 0 1 1 -2 3 5 3 2 3 3 2 2 4 4 5 5 5 8 8 9 5 1 2 6 5 6 5 7 5 7 4 -1 -1 -1 4 5 3 3 3
-4 -5 -6 -5 -4 -0 2 2 -0 2 3 4 3 3 4 3 2 7 5 5 5 7 7 8 8 8 4 3 -1 3 4 7 6 5 7 6 -1 -1 5 2 2 3 3 3
-2 -3 -4 -5 -4 -1 1 5 1 -1 4 5 0 0 1 2 2 2 5 3 5 4 7 7 7 6 6 6 5 -2 2 2 3 4 3 -2 0 1 3 2 3 3 4 3
0 -1 -2 -3 -3 -1 1 2 1 1 2 5 4 4 -0 -1 -0 3 4 5 3 5 5 6 6 5 5 6 6 5 0 -2 3 3 0 -1 1 2 4 4 4 3 3 2
2 1 0 -0 -1 -0 1 3 2 3 4 5 6 4 3 0 -0 0 4 3 3 5 5 5 4 7 3 6 3 3 2 0 2 3 1 0 1 3 4 3 3 3 -0 -3
3 3 2 2 3 2 2 3 3 2 5 6 7 4 3 3 2 2 2 2 4 6 5 4 5 5 5 5 5 5 1 1 5 5 2 3 3 4 3 2 2 -1 -3 -5
4 4 4 3 4 4 5 6 4 3 2 3 8 6 4 4 4 6 6 5 5 5 6 5 4 4 4 5 6 1 0 0 0 2 4 4 3 2 3 -0 -2 -3 -5 -6
4 5 5 5 5 5 7 6 6 4 4 4 6 7 4 4 6 6 6 7 6 6 6 6 6 5 4 6 6 0 0 2 3 3 3 2 2 2 -1 -2 -4 -5 -6 -9
4 4 5 5 5 6 6 5 3 5 6 5 6 6 5 4 5 6 4 5 6 6 5 5 5 4 5 6 2 1 2 2 2 2 2 2 2 -2 -4 -5 -7 -10 -11 -11
4 4 5 5 5 5 5 5 5 5 5 6 3 5 5 4 3 4 3 4 5 4 4 4 5 5 6 4 2 2 1 1 1 2 0 -1 -3 -5 -8 -10 -11 -10 -10 -11
5 5 5 5 5 5 4 5 5 5 4 5 4 4 5 3 2 2 3 3 4 4 3 2 2 3 3 2 2 2 1 1 1 -1 -2 -4 -5 -10 -10 -10 -9 -9 -10 -8
4 4 5 4 5 5 5 5 4 4 3 3 3 4 4 3 4 3 2 3 2 4 3 3 4 3 1 1 1 1 0 -0 -2 -3 -5 -9 -10 -10 -9 -8 -8 -7 -7 -6
3 3 3 3 3 3 4 2 1 2 4 1 1 2 2 2 3 1 0 2 1 5 0 3 2 -0 -0 0 0 -0 -1 -3 -6 -9 -10 -10 -9 -8 -7 -6 -7 -7 -8 -10
1 1 1 0 -0 2 3 3 3 2 0 0 0 0 1 1 1 0 1 3 4 -0 1 1 -0 -2 -1 -0 -1 -2 -4 -6 -9 -10 -10 -10 -9 -12 -12 -11 -10 -9 -9 -10
0 -0 1 1 2 2 2 2 2 0 1 1 1 -0 0 -0 0 -0 3 1 -0 2 1 2 -2 -2 -2 -2 -2 -3 -5 -8 -11 -12 -14 -17 -17 -13 -10 -9 -9 -8 -9 -11
-0 0 2 1 -1 -1 -1 -1 -0 -0 0 1 1 0 1 1 1 1 -0 0 1 0 0 -1 -3 -3 -3 -4 -4 -6 -8 -10 -10 -10 -10 -16 -14 -10 -8 -8 -8 -8 -8 -9
-2 -1 -0 -1 -0 -1 -1 -1 -1 -0 0 1 0 1 2 1 1 1 1 2 -0 -1 -1 -2 -4 -5 -5 -5 -7 -8 -8 -10 -12 -15 -15 -13 -10 -8 -8 -8 -8 -8 -9 -10
-2 -2 -1 -1 -1 -0 -1 -1 -0 -0 0 1 0 1 1 -1 0 0 -2 -1 -1 -2 -2 -5 -5 -6 -6 -10 -9 -9 -9 -10 -11 -10 -11 -10 -9 -8 -7 -8 -9 -5 -7 -8

GFSNW_850_dewp_015.txt.gz
Dewpoint
1 1 1 2 -1 -3 -2 4 4 5 -2 1 5 5 3 -2 -1 -1 0 0 -1 1 0 3 3 4 3 0 1 0 -2 2 2 1 -2 -3 -2 0 2 4 4 4 4 3
0 1 2 3 -2 -3 0 3 5 2 -2 4 5 4 1 -1 -1 -1 -1 1 2 1 3 3 5 4 2 2 2 3 1 2 5 4 3 0 -3 -2 -0 4 2 2 1 2
-1 1 3 4 -2 -2 3 6 5 2 4 6 6 4 2 2 0 1 0 1 -0 2 2 2 5 5 3 1 -1 -2 2 1 2 4 0 -2 -2 -2 -3 3 4 4 4 2
-2 0 3 3 -1 -1 4 6 5 -1 4 3 5 4 3 3 2 0 0 1 1 2 3 3 5 4 3 2 -1 1 2 4 3 1 -1 -1 -1 -1 -2 -1 -1 2 1 2
-4 -2 1 3 0 -0 4 6 6 -4 -1 -2 3 4 2 3 2 2 2 1 1 2 3 3 4 3 2 3 1 2 3 5 3 2 2 2 2 1 0 -1 -1 -1 -1 0
-6 -4 -1 2 2 3 4 5 2 5 6 3 5 5 2 1 2 1 1 1 4 4 3 2 2 0 0 2 2 4 5 3 3 5 3 4 3 2 0 -1 -1 -2 0 1
-7 -6 -4 -0 1 2 6 4 4 4 5 6 5 3 2 3 1 2 3 1 3 2 1 0 1 1 1 1 2 3 3 4 3 2 1 0 3 -1 -1 0 -0 -1 2 2
-7 -7 -6 -2 -1 1 3 1 6 4 4 6 4 1 2 2 4 5 4 2 1 1 2 3 -0 2 -2 1 1 2 4 3 2 4 4 1 2 -0 0 1 2 3 3 3
-6 -7 -7 -5 -1 -2 -2 0 5 5 4 5 4 2 1 5 5 5 5 3 2 4 5 1 3 4 2 4 3 2 4 2 2 2 2 1 1 -0 -1 -1 3 3 3 3
-5 -7 -8 -6 -2 -1 -1 -1 0 4 4 4 3 5 4 4 5 6 5 5 5 5 3 5 4 4 3 4 4 3 2 2 1 4 0 2 2 -1 -1 3 2 4 3 3
-4 -5 -7 -7 -5 0 1 -1 2 3 4 4 4 4 3 3 4 4 5 4 5 5 5 3 4 3 3 3 3 3 2 2 4 4 3 3 -1 -1 1 1 3 4 2 2
-4 -5 -6 -7 -6 -1 2 1 0 3 2 2 4 4 4 4 5 4 4 0 6 6 4 3 4 4 5 4 3 2 3 3 4 2 2 -1 -1 -0 0 2 3 3 3 2
-3 -4 -6 -7 -6 -2 3 4 1 1 1 2 1 2 3 3 5 4 3 5 4 5 5 5 4 3 4 3 4 1 0 1 2 3 2 2 0 2 2 3 3 3 2 -1
-2 -3 -4 -6 -6 -4 -0 1 2 3 3 4 6 4 1 1 5 5 4 2 4 5 5 4 4 2 4 3 2 2 1 1 1 2 2 1 3 3 4 3 3 3 1 1
-0 -1 -2 -4 -4 -4 -1 1 3 5 4 3 8 5 5 3 0 2 3 4 3 5 5 3 3 3 3 5 3 3 2 1 2 2 2 2 4 4 3 3 3 3 0 -4
2 1 0 -1 -2 -2 0 3 0 3 5 3 3 6 5 4 2 6 4 5 4 4 4 4 4 5 3 3 3 3 2 2 1 2 3 3 4 4 3 2 2 -2 -3 -5
3 3 2 1 0 1 5 5 6 3 3 3 4 6 5 5 6 6 6 6 6 6 6 6 6 4 5 2 5 3 1 -0 1 2 3 4 3 2 2 -0 -2 -4 -6 -11
3 4 4 3 3 4 5 5 4 4 4 4 4 4 5 6 6 6 6 7 6 6 6 6 5 5 5 4 4 3 2 2 2 3 3 3 2 1 -1 -3 -5 -10 -10 -10
4 4 4 4 3 4 4 5 4 5 5 5 4 3 3 5 5 5 5 5 3 5 4 5 5 3 5 4 4 3 2 1 3 3 1 1 1 -1 -3 -9 -10 -10 -9 -9
4 4 4 5 3 3 4 4 4 4 5 6 4 4 3 4 4 3 3 3 2 3 2 4 2 3 3 2 2 2 2 2 2 2 2 1 -1 -7 -9 -9 -9 -9 -8 -9
5 5 5 5 5 5 4 4 4 4 4 5 4 4 3 3 2 2 3 2 2 3 1 3 2 3 1 -0 1 2 2 2 2 1 -0 -3 -6 -9 -9 -9 -8 -10 -16 -15
4 4 4 5 4 4 3 3 3 2 4 3 3 4 3 4 3 2 2 2 1 3 2 2 2 0 2 2 1 1 1 1 -1 -3 -8 -9 -9 -9 -9 -12 -17 -17 -14 -11
3 2 2 2 0 2 3 3 2 2 1 1 2 1 2 2 3 1 1 2 2 2 2 2 0 0 1 1 1 -1 -3 -7 -9 -9 -9 -9 -10 -12 -17 -19 -19 -15 -12 -11
1 0 1 1 1 1 -0 0 0 -0 0 0 1 0 1 1 1 0 2 1 1 2 2 -0 1 1 2 -0 -0 -2 -5 -7 -6 -8 -11 -11 -13 -18 -19 -17 -14 -13 -12 -12
0 -0 1 0 -1 -1 -1 -1 -1 -0 -0 0 0 -0 0 -0 0 -0 -0 1 2 2 2 0 0 -0 -1 -2 -2 -3 -4 -4 -6 -9 -10 -11 -15 -16 -16 -15 -13 -12 -11 -9
-1 -1 -1 -1 -0 -1 -1 -0 -1 -0 -0 -0 0 -0 1 1 0 1 2 2 2 1 -0 -1 -2 -2 -2 -1 -1 -3 -6 -8 -8 -8 -9 -12 -15 -14 -13 -13 -12 -10 -7 -8
-1 -1 -1 -1 -1 -1 -1 -0 -0 0 0 -0 0 1 -0 -1 0 1 0 1 0 -0 -3 -4 -4 -5 -6 -8 -10 -10 -8 -6 -6 -8 -10 -13 -13 -12 -11 -11 -10 -8 -6 -5